#timestamp,LO_Frequency,Hit,StdDev 
1502042415.1,286046996.6,Y,0.0
1502042435.9,286046998.1,P,0.3
1502042455.7,286047001.2,P,1.3
1502042475.6,286047001.1,N,1.4
1502042495.4,286047000.4,N,1.3
1502042515.2,286046998.2,N,1.3
1502042535.1,286047000.8,N,1.3
1502042536.0,286047000.8,N,1.2
1502042555.8,286047000.4,N,1.2
1502042575.7,286047000.3,N,1.1
1502042595.5,286046998.2,N,1.2
1502042615.3,286047001.1,N,1.2
1502042635.2,286046998.1,N,1.2
1502042655.0,286047000.6,N,1.2
1502042655.9,286047000.6,N,1.2
1502042675.8,286047001.0,N,1.2
1502042695.6,286047001.2,N,1.2
1502042715.4,286047000.7,N,1.2
1502042735.3,286046999.8,N,1.1
1502042755.1,286046999.9,N,1.1
1502042775.8,286047002.7,N,1.2
1502042795.7,286047000.5,N,1.2
1502042815.5,286047000.1,N,1.2
1502042835.4,286047000.2,N,1.1
1502042855.2,286047000.0,N,1.1
1502042875.0,286047001.1,N,1.1
1502042875.9,286047001.1,N,1.1
1502042895.8,286047000.6,N,1.1
1502042915.6,286046998.2,N,1.1
1502042935.5,286046998.2,N,1.2
1502042955.3,286046998.5,N,1.2
1502042975.1,286047001.2,N,1.1
1502042995.9,286046998.1,N,1.2
1502043015.7,286047000.7,N,1.2
1502043035.6,286047000.9,N,1.2
1502043055.4,286046998.2,N,1.2
1502043075.2,286047001.2,N,1.2
1502043095.1,286046998.6,N,1.2
1502043096.0,286046998.6,N,1.2
1502043115.8,286046998.4,N,1.3
1502043135.7,286046998.6,N,1.3
1502043155.5,286046998.6,N,1.3
1502043175.3,286046998.4,N,1.2
1502043195.2,286046999.1,N,1.2
1502043215.0,286046999.4,N,1.2
1502043215.9,286046999.4,N,1.2
1502043235.8,286046996.5,N,1.3
1502043255.6,286046996.6,N,1.4
1502043275.4,286046998.9,N,1.4
1502043295.3,286046999.6,N,1.4
1502043315.1,286046996.5,N,1.4
1502043335.9,286046999.1,N,1.3
1502043355.7,286046998.9,N,1.3
1502043375.5,286046998.7,N,1.3
1502043395.4,286046998.9,N,1.3
1502043415.2,286047001.2,N,1.3
1502043435.1,286047000.7,N,1.3
1502043436.0,286047000.7,N,1.3
1502043455.8,286047000.9,N,1.3
1502043475.6,286047001.2,N,1.4
1502043495.5,286047001.2,N,1.4
1502043515.3,286047000.5,N,1.4
1502043535.1,286047000.7,N,1.4
1502043555.9,286047000.5,N,1.4
1502043575.7,286047000.2,N,1.4
1502043595.6,286047000.0,N,1.3
1502043615.4,286047000.0,N,1.3
1502043635.2,286046999.8,N,1.3
1502043655.1,286047002.4,N,1.4
1502043656.0,286047002.4,N,1.5
1502043675.8,286047002.7,N,1.6
1502043695.7,286047001.6,N,1.6
1502043715.5,286047004.4,N,1.7
1502043735.3,286047002.7,N,1.8
1502043755.2,286047002.4,N,1.8
1502043775.0,286047004.3,N,2.0
1502043775.9,286047004.3,N,1.9
1502043795.8,286047001.8,N,1.8
1502043815.6,286047001.6,N,1.7
1502043835.5,286047004.2,N,1.8
1502043855.3,286047004.3,N,1.7
1502043875.1,286047004.2,N,1.7
1502043895.9,286047004.1,N,1.7
1502043915.7,286047004.1,N,1.6
1502043935.6,286047003.8,N,1.6
1502043955.4,286047005.9,Y,0.0
1502043975.2,286047002.1,P,0.0
1502043995.1,286047004.1,P,0.9
1502043996.0,286047004.1,P,1.0
1502044015.8,286047001.3,N,1.1
1502044035.7,286047003.6,Y,0.0
1502044055.5,286047000.9,P,0.9
1502044075.3,286046998.5,N,1.7
1502044095.2,286047000.8,N,1.5
1502044115.0,286047000.9,N,1.3
1502044115.9,286047000.9,N,1.2
1502044135.8,286046999.9,N,1.2
1502044155.6,286047000.2,N,1.1
1502044175.4,286047000.7,N,1.1
1502044195.3,286047000.6,N,1.0
1502044215.1,286046999.8,N,1.0
1502044235.8,286047002.7,N,1.1
1502044255.7,286047002.2,N,1.1
1502044275.5,286047001.9,N,1.1
1502044295.4,286047001.9,N,1.1
1502044315.2,286047002.3,N,1.1
1502044335.0,286047002.4,N,1.1
1502044335.9,286047002.4,N,1.1
1502044355.8,286047002.7,N,1.2
1502044375.6,286047002.2,N,1.2
1502044395.5,286047002.6,N,1.2
1502044415.3,286047002.5,N,1.2
1502044435.1,286047002.4,N,1.1
1502044455.9,286047002.4,N,1.1
1502044475.7,286047001.6,N,1.1
1502044495.6,286047001.6,N,1.1
1502044515.4,286047001.9,N,1.1
1502044535.2,286047002.1,N,1.1
1502044555.1,286047004.3,Y,0.0
1502044556.0,286047004.3,P,1.4
1502044575.8,286046999.9,N,1.8
1502044595.7,286047000.0,N,1.8
1502044615.5,286046999.9,N,1.7
1502044635.3,286046999.9,N,1.6
1502044655.2,286047000.2,N,1.5
1502044675.0,286047000.0,N,1.5
1502044675.9,286047000.0,N,1.4
1502044695.7,286047000.1,N,1.3
1502044715.6,286047000.4,N,1.3
1502044735.4,286046999.8,N,1.2
1502044755.3,286047002.7,N,1.3
1502044775.1,286047002.3,N,1.3
1502044795.8,286047000.2,N,1.3
1502044815.7,286047001.7,N,1.3
1502044835.5,286047000.5,N,1.2
1502044855.4,286047000.6,N,1.2
1502044875.2,286047000.2,N,1.2
1502044895.0,286046999.9,N,1.2
1502044895.9,286046999.9,N,1.2
1502044915.8,286046999.8,N,1.1
1502044935.6,286047000.3,N,1.1
1502044955.4,286046999.7,N,1.1
1502044975.3,286047002.5,N,1.2
1502044995.1,286047002.0,N,1.2
1502045015.9,286047003.8,Y,0.0
1502045035.7,286047001.8,P,0.5
1502045055.5,286047002.0,P,0.6
1502045075.4,286047002.3,P,0.6
1502045095.2,286046999.9,N,0.9
1502045115.1,286047002.4,N,0.9
1502045116.0,286047002.4,N,0.9
1502045135.8,286047002.0,N,0.8
1502045155.6,286047002.4,N,0.8
1502045175.5,286047002.0,N,0.8
1502045195.3,286047002.1,N,0.8
1502045215.2,286047001.8,N,0.7
1502045235.9,286047004.0,Y,0.0
1502045255.7,286047000.2,P,0.8
1502045275.6,286047000.7,N,0.7
1502045295.4,286047000.0,N,0.7
1502045315.3,286046999.8,N,0.7
1502045335.1,286047000.5,N,0.7
1502045336.0,286047000.5,N,0.6
1502045355.8,286047002.3,Y,0.0
1502045375.7,286046999.8,P,0.4
1502045395.5,286047000.3,N,0.3
1502045415.4,286047002.4,P,1.0
1502045435.2,286047000.3,N,0.9
1502045455.0,286046999.9,N,0.9
1502045455.9,286046999.9,N,0.8
1502045475.8,286047002.8,Y,0.0
1502045495.6,286047002.7,P,1.1
1502045515.5,286047001.1,N,0.9
1502045535.3,286047001.0,N,0.8
1502045555.1,286046999.9,N,0.9
1502045575.9,286047002.7,N,1.1
1502045595.7,286047002.1,N,1.0
1502045615.6,286047002.0,N,1.0
1502045635.4,286047002.4,N,1.0
1502045655.2,286047000.0,N,1.0
1502045675.1,286046999.7,N,1.1
1502045676.0,286046999.7,N,1.1
1502045695.8,286046999.9,N,1.1
1502045715.7,286047002.6,N,1.2
1502045735.5,286047002.5,N,1.2
1502045755.3,286047002.2,N,1.2
1502045775.2,286047001.5,N,1.1
1502045795.0,286047002.5,N,1.1
1502045795.9,286047002.5,N,1.1
1502045815.8,286047000.3,N,1.1
1502045835.6,286047000.0,N,1.1
1502045855.4,286047000.3,N,1.1
1502045875.3,286047002.6,N,1.1
1502045895.1,286047002.6,N,1.1
1502045915.9,286047002.5,N,1.1
1502045935.7,286047002.1,N,1.1
1502045955.5,286046999.7,N,1.2
1502045975.4,286047000.1,N,1.2
1502045995.2,286047002.1,N,1.2
